sat.trackr.live / text

‹ back to catalog

2025-108A

NORAD 64087 · 2025-108A

PAYLOAD ACTIVE UNKNOWN

§ Identity

Operator
Country
PRC
Launch date
2025-05-21
Launch site
JSC
Launch vehicle
Mass (kg)
RCS (m²)

External: N2YO · Heavens-Above · Gunter

§ Orbital elements

Epoch: 2026-05-25T04:23:37.101120Z

Period
94.99 min
Inclination
97.4769°
Eccentricity
0.0003462
Mean motion
15.15945918 rev/d
Perigee alt
515.7 km
Apogee alt
520.5 km
Semi-major
6,896.2 km
B*
2.4582e-4
RAAN
220.2471°
Arg perigee
50.5310°
Mean anomaly
309.6228°
Rev number
5,583

§ Raw data

2025-108A1 64087U 25108A   26145.18306830  .00004648  00000+0  24582-3 0  99932 64087  97.4769 220.2471 0003462  50.5310 309.6228 15.15945918 55835

JSON: /api/v1/satellites/64087 · /tle

For live sub-satellite position, see the globe view (requires WebGL).

§ Visibility from observer

Set your observer location to see the next 7 days of passes ≥ 10°. The values pass through the URL so the page stays shareable.

No JS? Fill the form by hand. The geolocation button needs JavaScript.